CZ-4B DEB

Satellite information

Favourite Embed

Satellite Type and Status

DEBRISIN ORBIT

Key statistics

Satellite CZ-4B DEB at a glance.

Uptime

4435

Days in orbit

Revolutions

≈ 14.6

Per day

Orbit

LEO

Low Earth Orbit

Inclination

74.9

Latest

Satellite identification and parameters

Extended collection of information and parameters for CZ-4B DEB.

Object identification

Identified? True

Debris? True

Object name: CZ-4B DEB

International designator: 2013-057E

Object number (NORAD): 40532

Object ID (CCSDS): 40532

Country: PEOPLES REPUBLIC OF CHINA (PRC)

Current information (Y/N): Y

RCS size: SMALL

Orbital parameters

Period: 98.949 minutes

Inclination: 74.8673 deg

SMA: 7086.546 km

Apoapsis: 840.137 km

Periapsis: 576.684 km

RAAN: 170.7297 deg

Eccentricy: 0.01858821

Argument of periapsis: 24.6516 deg

Mean anomaly: 336.3394 deg

Mean motion: 14.55294465 rev/day

Mean motion (dot): 0.00005078 rev/day2

B* drag term: 0.00093215479 1/REarth

Two-line elements (TLE)

Creation date: Dec. 13, 2025, 4:32 a.m.

Reference frame: TEME

Reference center: EARTH

Epoch: Dec. 12, 2025, 10:22 p.m. UTC

TLE line 0: 0 CZ-4B DEB

TLE line 1: 1 40532U 13057E 25346.93246442 .00005078 00000-0 93215-3 0 9997

TLE line 2: 2 40532 74.8673 170.7297 0185882 24.6516 336.3394 14.55294465564382

Live tracking on map

Real-time ground track for satellite CZ-4B DEB.

In-orbit conjunctions

A list of the most updated potential collisions computed for object CZ-4B DEB.

Target Orbit TCA Probability of collision Miss distance Type
FENGYUN 1C DEB SSO 2025-07-10 22:39:23 0.0001282507 87.0 (m) DEBRIS
KYOKKO 1 DEB HEO 2024-07-30 15:52:36 0.0001688078 191.0 (m) DEBRIS

Associated space launch

CZ-4B DEB was lifted into orbit during the mission ‘Long March 4B | Shijian 16’, on board a Long March 4B space rocket.

The launch took place on Oct. 25, 2013, 3:50 a.m. from Launch Area 94 (SLS-2 / 603).

For more information about the launch, click the button.

Launch to space Long March 4B | Shijian 16
Long March 4B | Shijian 16

Agency: N/A

Status: Launch Successful

Launch date: Oct. 25, 2013, 3:50 a.m. UTC

Rocket: Long March 4B

Launch pad: Launch Area 94 (SLS-2 / 603)

Location: Jiuquan Satellite Launch Center, People's Republic of China

...

Latest news about this satellite

There are no fresh news available about this satellite. Check back as we update our databases every day.


Newsletter sign-up

Weekly statistics, charts and insights to help you stay on top of the space industry.